This demonstration page uses our WeatherBlox Daily Observations layout. Learn more.

Left ArrowRight Arrow

39.92423, -83.80882

Hourly Observations for August 3, 2022

Temp ( °F °C ) Dew Point ( °F °C ) Humidity (%) Winds ( mph kmh ) Pressure ( in mb ) Visibility ( mi km ) Precip ( " mm )
12:56 am 00:56 Clear N/A N/A N/A S 3 6 N/A 10 16 0.00 0.00
1:56 am 01:56 Clear N/A N/A N/A Calm N/A 10 16 0.00 0.00
2:56 am 02:56 Clear N/A N/A N/A Calm N/A 10 16 0.00 0.00
3:56 am 03:56 Clear with Mist and Fog N/A N/A N/A Calm N/A 3 5 0.00 0.00
4:56 am 04:56 Clear N/A N/A N/A SE 3 6 N/A 10 16 0.00 0.00
5:56 am 05:56 Clear N/A N/A N/A S 3 6 N/A 7 11 0.00 0.00
6:56 am 06:56 Hazy 64 18 N/A N/A S 3 6 29.99 1016 4 6 0.00 0.00
7:56 am 07:56 Sunny 70 21 N/A N/A S 5 7 30.00 1016 9 14 0.00 0.00
8:56 am 08:56 Sunny 74 23.3 74 23.3 100 100 SSW 5 7 30.02 1017 10 16 0.00 0.00
9:49 am 09:49 Mostly Cloudy 79 26 72 22 79 79 VRB 6 9 29.98 1015 10 16 0.00 0.00
9:56 am 09:56 Mostly Cloudy 78 25.6 72 22.2 82 82 SSW 6 9 30.01 1016 10 16 0.00 0.00
10:27 am 10:27 Partly Cloudy 81 27 72 22 74 74 SSW 9 15 29.98 1015 10 16 0.00 0.00
10:36 am 10:36 Mostly Cloudy 81 27 73 23 79 79 SSW 7 11 29.97 1015 10 16 0.00 0.00
10:44 am 10:44 Mostly Sunny 81 27 73 23 79 79 SSW 8 13 29.97 1015 10 16 0.00 0.00
10:56 am 10:56 Mostly Sunny 82 27.8 75 23.9 79 79 VRB 7 11 30.00 1016 10 16 0.00 0.00
11:56 am 11:56 Sunny 84 28.9 77 25 80 80 SSW 7 11 29.98 1015 10 16 0.00 0.00
12:56 pm 12:56 Mostly Sunny 84 28.9 78 25.6 82 82 VRB 5 7 29.94 1014 10 16 0.00 0.00
1:17 pm 13:17 Mostly Cloudy 86 30 79 26 79 79 SW 10 17 29.94 1014 10 16 0.00 0.00
1:30 pm 13:30 Mostly Cloudy 84 29 79 26 84 84 SSW 8 13 29.94 1014 10 16 0.00 0.00
1:56 pm 13:56 Partly Cloudy 87 30.6 77 25 72 72 S 8 13 29.92 1013 10 16 0.00 0.00
2:56 pm 14:56 Mostly Sunny 88 31.1 77 25 70 70 SSW 8 13 29.91 1013 10 16 0.00 0.00
3:56 pm 15:56 Partly Cloudy 88 31.1 76 24.4 68 68 SW 13 20 29.90 1013 10 16 0.00 0.00
4:56 pm 16:56 Partly Cloudy 87 30.6 75 23.9 67 67 SW 12 19 29.86 1011 10 16 0.00 0.00
5:56 pm 17:56 Sunny 86 30 72 22.2 63 63 SW 10 17 29.87 1011 10 16 0.00 0.00
6:56 pm 18:56 Sunny 83 28.3 75 23.9 77 77 SW 7 11 29.94 1014 10 16 0.00 0.00
7:36 pm 19:36 Sunny with Nearby Thunderstorms 84 29 75 24 74 74 SW 8 13 29.91 1013 10 16 0.00 0.00
7:56 pm 19:56 Sunny with Nearby Thunderstorms 83 28.3 73 22.8 72 72 SW 7 11 29.96 1015 10 16 0.00 0.00
8:04 pm 20:04 Sunny 82 28 73 23 74 74 SW 6 9 29.92 1013 10 16 0.00 0.00
8:56 pm 20:56 Clear 80 26.7 73 22.8 79 79 SSW 3 6 29.96 1015 10 16 0.00 0.00
9:56 pm 21:56 Clear 78 25.6 73 22.8 85 85 SSW 6 9 29.98 1015 10 16 0.00 0.00
10:56 pm 22:56 Clear 78 25.6 72 22.2 82 82 Calm 30.00 1016 10 16 0.00 0.00
11:56 pm 23:56 Clear 75 23.9 75 23.9 100 100 S 5 7 29.98 1015 10 16 0.00 0.00

Powered by AerisWeather